Year,Month,Day,Hour,Minute,Value (Times are PST for temperature in C)
2011,07,02,00,00,11.00
2011,07,02,00,01,11.00
2011,07,02,00,02,11.00
2011,07,02,00,03,10.90
2011,07,02,00,04,10.90
2011,07,02,00,05,10.90
2011,07,02,00,06,10.90
2011,07,02,00,07,10.90
2011,07,02,00,08,10.90
2011,07,02,00,09,10.90
2011,07,02,00,10,10.90
2011,07,02,00,11,10.90
2011,07,02,00,12,10.90
2011,07,02,00,13,10.90
2011,07,02,00,14,10.90
2011,07,02,00,15,10.90
2011,07,02,00,16,10.90
2011,07,02,00,17,10.90
2011,07,02,00,18,10.90
2011,07,02,00,19,10.90
2011,07,02,00,20,10.90
2011,07,02,00,21,10.90
2011,07,02,00,22,10.90
2011,07,02,00,23,10.90
2011,07,02,00,24,10.90
2011,07,02,00,25,10.80
2011,07,02,00,26,10.80
2011,07,02,00,27,10.80
2011,07,02,00,28,10.80
2011,07,02,00,29,10.80
2011,07,02,00,30,10.80
2011,07,02,00,31,10.80
2011,07,02,00,32,10.80
2011,07,02,00,33,10.80
2011,07,02,00,34,10.80
2011,07,02,00,35,10.80
2011,07,02,00,36,10.80
2011,07,02,00,37,10.80
2011,07,02,00,38,10.70
2011,07,02,00,39,10.70
2011,07,02,00,40,10.70
2011,07,02,00,41,10.70
2011,07,02,00,42,10.70
2011,07,02,00,43,10.70
2011,07,02,00,44,10.70
2011,07,02,00,45,10.70
2011,07,02,00,46,10.70
2011,07,02,00,47,10.70
2011,07,02,00,48,10.70
2011,07,02,00,49,10.70
2011,07,02,00,50,10.70
2011,07,02,00,51,10.70
2011,07,02,00,52,10.70
2011,07,02,00,53,10.70
2011,07,02,00,54,10.70
2011,07,02,00,55,10.60
2011,07,02,00,56,10.60
2011,07,02,00,57,10.60
2011,07,02,00,58,10.60
2011,07,02,00,59,10.60
2011,07,02,01,00,10.60
2011,07,02,01,01,10.60
2011,07,02,01,02,10.60
2011,07,02,01,03,10.50
2011,07,02,01,04,10.50
2011,07,02,01,05,10.50
2011,07,02,01,06,10.40
2011,07,02,01,07,10.40
2011,07,02,01,08,10.40
2011,07,02,01,09,10.40
2011,07,02,01,10,10.30
2011,07,02,01,11,10.30
2011,07,02,01,12,10.30
2011,07,02,01,13,10.30
2011,07,02,01,14,10.30
2011,07,02,01,15,10.30
2011,07,02,01,16,10.30
2011,07,02,01,17,10.30
2011,07,02,01,18,10.30
2011,07,02,01,19,10.30
2011,07,02,01,20,10.30
2011,07,02,01,21,10.30
2011,07,02,01,22,10.30
2011,07,02,01,23,10.30
2011,07,02,01,24,10.30
2011,07,02,01,25,10.30
2011,07,02,01,26,10.30
2011,07,02,01,27,10.40
2011,07,02,01,28,10.40
2011,07,02,01,29,10.40
2011,07,02,01,30,10.40
2011,07,02,01,31,10.40
2011,07,02,01,32,10.40
2011,07,02,01,33,10.40
2011,07,02,01,34,10.40
2011,07,02,01,35,10.40
2011,07,02,01,36,10.40
2011,07,02,01,37,10.40
2011,07,02,01,38,10.40
2011,07,02,01,39,10.40
2011,07,02,01,40,10.40
2011,07,02,01,41,10.40
2011,07,02,01,42,10.40
2011,07,02,01,43,10.40
2011,07,02,01,44,10.40
2011,07,02,01,45,10.40
2011,07,02,01,46,10.40
2011,07,02,01,47,10.40
2011,07,02,01,48,10.40
2011,07,02,01,49,10.40
2011,07,02,01,50,10.40
2011,07,02,01,51,10.40
2011,07,02,01,52,10.40
2011,07,02,01,53,10.40
2011,07,02,01,54,10.40
2011,07,02,01,55,10.40
2011,07,02,01,56,10.40
2011,07,02,01,57,10.40
2011,07,02,01,58,10.40
2011,07,02,01,59,10.40
2011,07,02,02,00,10.50
2011,07,02,02,01,10.50
2011,07,02,02,02,10.50
2011,07,02,02,03,10.50
2011,07,02,02,04,10.50
2011,07,02,02,05,10.50
2011,07,02,02,06,10.50
2011,07,02,02,07,10.50
2011,07,02,02,08,10.50
2011,07,02,02,09,10.50
2011,07,02,02,10,10.50
2011,07,02,02,11,10.50
2011,07,02,02,12,10.60
2011,07,02,02,13,10.50
2011,07,02,02,14,10.60
2011,07,02,02,15,10.60
2011,07,02,02,16,10.60
2011,07,02,02,17,10.60
2011,07,02,02,18,10.60
2011,07,02,02,19,10.60
2011,07,02,02,20,10.60
2011,07,02,02,21,10.60
2011,07,02,02,22,10.60
2011,07,02,02,23,10.60
2011,07,02,02,24,10.60
2011,07,02,02,25,10.60
2011,07,02,02,26,10.60
2011,07,02,02,27,10.60
2011,07,02,02,28,10.60
2011,07,02,02,29,10.60
2011,07,02,02,30,10.60
2011,07,02,02,31,10.60
2011,07,02,02,32,10.60
2011,07,02,02,33,10.60
2011,07,02,02,34,10.60
2011,07,02,02,35,10.70
2011,07,02,02,36,10.60
2011,07,02,02,37,10.60
2011,07,02,02,38,10.60
2011,07,02,02,39,10.70
2011,07,02,02,40,10.70
2011,07,02,02,41,10.70
2011,07,02,02,42,10.70
2011,07,02,02,43,10.70
2011,07,02,02,44,10.70
2011,07,02,02,45,10.70
2011,07,02,02,46,10.70
2011,07,02,02,47,10.70
2011,07,02,02,48,10.60
2011,07,02,02,49,10.70
2011,07,02,02,50,10.70
2011,07,02,02,51,10.70
2011,07,02,02,52,10.70
2011,07,02,02,53,10.70
2011,07,02,02,54,10.70
2011,07,02,02,55,10.70
2011,07,02,02,56,10.70
2011,07,02,02,57,10.70
2011,07,02,02,58,10.70
2011,07,02,02,59,10.70
2011,07,02,03,00,10.70
2011,07,02,03,01,10.70
2011,07,02,03,02,10.60
2011,07,02,03,06,10.60
2011,07,02,03,07,10.60
2011,07,02,03,08,10.60
2011,07,02,03,09,10.60
2011,07,02,03,10,10.60
2011,07,02,03,11,10.60
2011,07,02,03,12,10.60
2011,07,02,03,13,10.60
2011,07,02,03,14,10.60
2011,07,02,03,15,10.60
2011,07,02,03,16,10.60
2011,07,02,03,17,10.60
2011,07,02,03,18,10.60
2011,07,02,03,19,10.60
2011,07,02,03,20,10.60
2011,07,02,03,21,10.60
2011,07,02,03,22,10.60
2011,07,02,03,23,10.60
2011,07,02,03,24,10.60
2011,07,02,03,25,10.60
2011,07,02,03,26,10.60
2011,07,02,03,27,10.60
2011,07,02,03,28,10.60
2011,07,02,03,29,10.60
2011,07,02,03,30,10.60
2011,07,02,03,31,10.60
2011,07,02,03,32,10.60
2011,07,02,03,33,10.60
2011,07,02,03,34,10.60
2011,07,02,03,35,10.60
2011,07,02,03,36,10.50
2011,07,02,03,37,10.50
2011,07,02,03,38,10.50
2011,07,02,03,39,10.50
2011,07,02,03,40,10.50
2011,07,02,03,41,10.50
2011,07,02,03,42,10.50
2011,07,02,03,43,10.40
2011,07,02,03,44,10.40
2011,07,02,03,45,10.50
2011,07,02,03,46,10.50
2011,07,02,03,47,10.50
2011,07,02,03,48,10.50
2011,07,02,03,49,10.50
2011,07,02,03,50,10.50
2011,07,02,03,51,10.50
2011,07,02,03,52,10.50
2011,07,02,03,53,10.50
2011,07,02,03,54,10.50
2011,07,02,03,55,10.60
2011,07,02,03,56,10.60
2011,07,02,03,57,10.60
2011,07,02,03,58,10.60
2011,07,02,03,59,10.60
2011,07,02,04,00,10.60
2011,07,02,04,01,10.60
2011,07,02,04,02,10.60
2011,07,02,04,03,10.70
2011,07,02,04,04,10.70
2011,07,02,04,05,10.70
2011,07,02,04,06,10.70
2011,07,02,04,07,10.70
2011,07,02,04,08,10.70
2011,07,02,04,09,10.70
2011,07,02,04,10,10.70
2011,07,02,04,11,10.70
2011,07,02,04,12,10.70
2011,07,02,04,13,10.70
2011,07,02,04,14,10.70
2011,07,02,04,15,10.70
2011,07,02,04,16,10.70
2011,07,02,04,17,10.70
2011,07,02,04,18,10.70
2011,07,02,04,19,10.70
2011,07,02,04,20,10.70
2011,07,02,04,21,10.70
2011,07,02,04,22,10.70
2011,07,02,04,23,10.70
2011,07,02,04,24,10.70
2011,07,02,04,25,10.70
2011,07,02,04,26,10.70
2011,07,02,04,27,10.70
2011,07,02,04,28,10.70
2011,07,02,04,29,10.70
2011,07,02,04,30,10.70
2011,07,02,04,31,10.80
2011,07,02,04,32,10.80
2011,07,02,04,33,10.80
2011,07,02,04,34,10.80
2011,07,02,04,35,10.80
2011,07,02,04,36,10.80
2011,07,02,04,37,10.80
2011,07,02,04,38,10.80
2011,07,02,04,39,10.80
2011,07,02,04,40,10.80
2011,07,02,04,41,10.80
2011,07,02,04,42,10.80
2011,07,02,04,43,10.80
2011,07,02,04,44,10.80
2011,07,02,04,45,10.80
2011,07,02,04,46,10.80
2011,07,02,04,47,10.80
2011,07,02,04,48,10.80
2011,07,02,04,49,10.80
2011,07,02,04,50,10.80
2011,07,02,04,51,10.80
2011,07,02,04,52,10.80
2011,07,02,04,53,10.80
2011,07,02,04,54,10.80
2011,07,02,04,55,10.80
2011,07,02,04,56,10.80
2011,07,02,04,57,10.80
2011,07,02,04,58,10.80
2011,07,02,04,59,10.80
2011,07,02,05,00,10.80
2011,07,02,05,01,10.80
2011,07,02,05,02,10.80
2011,07,02,05,03,10.80
2011,07,02,05,04,10.80
2011,07,02,05,05,10.80
2011,07,02,05,06,10.80
2011,07,02,05,07,10.80
2011,07,02,05,08,10.80
2011,07,02,05,09,10.80
2011,07,02,05,10,10.80
2011,07,02,05,11,10.80
2011,07,02,05,12,10.90
2011,07,02,05,13,10.90
2011,07,02,05,14,10.90
2011,07,02,05,15,10.90
2011,07,02,05,16,10.90
2011,07,02,05,17,10.90
2011,07,02,05,18,10.90
2011,07,02,05,19,10.90
2011,07,02,05,20,10.90
2011,07,02,05,21,10.90
2011,07,02,05,22,10.90
2011,07,02,05,23,10.90
2011,07,02,05,24,10.90
2011,07,02,05,25,10.90
2011,07,02,05,26,10.90
2011,07,02,05,27,10.90
2011,07,02,05,28,10.90
2011,07,02,05,29,10.90
2011,07,02,05,30,10.90
2011,07,02,05,31,10.90
2011,07,02,05,32,10.90
2011,07,02,05,33,10.90
2011,07,02,05,34,10.90
2011,07,02,05,35,10.90
2011,07,02,05,36,10.90
2011,07,02,05,37,10.90
2011,07,02,05,38,10.90
2011,07,02,05,39,11.00
2011,07,02,05,40,10.90
2011,07,02,05,41,10.90
2011,07,02,05,42,10.90
2011,07,02,05,43,10.90
2011,07,02,05,44,10.90
2011,07,02,05,45,10.90
2011,07,02,05,46,10.90
2011,07,02,05,47,10.90
2011,07,02,05,48,10.90
2011,07,02,05,49,11.00
2011,07,02,05,50,11.00
2011,07,02,05,51,11.00
2011,07,02,05,52,11.00
2011,07,02,05,53,11.00
2011,07,02,05,54,11.00
2011,07,02,05,55,11.00
2011,07,02,05,56,11.00
2011,07,02,05,57,11.00
2011,07,02,05,58,11.00
2011,07,02,05,59,11.00
2011,07,02,06,00,11.00
2011,07,02,06,01,11.00
2011,07,02,06,02,11.00
2011,07,02,06,03,11.00
2011,07,02,06,04,11.00
2011,07,02,06,05,11.00
2011,07,02,06,06,11.00
2011,07,02,06,07,11.00
2011,07,02,06,08,11.00
2011,07,02,06,09,11.00
2011,07,02,06,10,11.00
2011,07,02,06,11,11.00
2011,07,02,06,12,11.00
2011,07,02,06,13,11.00
2011,07,02,06,14,11.10
2011,07,02,06,15,11.00
2011,07,02,06,16,11.10
2011,07,02,06,17,11.00
2011,07,02,06,18,11.00
2011,07,02,06,19,11.00
2011,07,02,06,20,11.00
2011,07,02,06,21,11.00
2011,07,02,06,22,11.00
2011,07,02,06,23,11.00
2011,07,02,06,24,11.00
2011,07,02,06,25,11.00
2011,07,02,06,26,11.00
2011,07,02,06,27,11.00
2011,07,02,06,28,11.00
2011,07,02,06,29,11.00
2011,07,02,06,30,11.00
2011,07,02,06,31,11.10
2011,07,02,06,32,11.10
2011,07,02,06,33,11.00
2011,07,02,06,34,11.00
2011,07,02,06,35,11.00
2011,07,02,06,36,11.00
2011,07,02,06,37,11.00
2011,07,02,06,38,11.00
2011,07,02,06,39,11.00
2011,07,02,06,40,11.10
2011,07,02,06,41,11.10
2011,07,02,06,42,11.10
2011,07,02,06,43,11.00
2011,07,02,06,44,11.00
2011,07,02,06,45,11.00
2011,07,02,06,46,11.00
2011,07,02,06,47,11.00
2011,07,02,06,48,11.00
2011,07,02,06,49,11.00
2011,07,02,06,50,11.00
2011,07,02,06,51,11.10
2011,07,02,06,52,11.10
2011,07,02,06,53,11.10
2011,07,02,06,54,11.10
2011,07,02,06,55,11.10
2011,07,02,06,56,11.10
2011,07,02,06,57,11.10
2011,07,02,06,58,11.10
2011,07,02,06,59,11.10
2011,07,02,07,00,11.10
2011,07,02,07,01,11.10
2011,07,02,07,02,11.10
2011,07,02,07,03,11.10
2011,07,02,07,04,11.10
2011,07,02,07,05,11.10
2011,07,02,07,06,11.20
2011,07,02,07,07,11.20
2011,07,02,07,08,11.20
2011,07,02,07,09,11.20
2011,07,02,07,10,11.20
2011,07,02,07,11,11.20
2011,07,02,07,12,11.20
2011,07,02,07,13,11.20
2011,07,02,07,14,11.20
2011,07,02,07,15,11.20
2011,07,02,07,16,11.20
2011,07,02,07,17,11.20
2011,07,02,07,18,11.20
2011,07,02,07,19,11.20
2011,07,02,07,20,11.30
2011,07,02,07,21,11.30
2011,07,02,07,22,11.30
2011,07,02,07,23,11.30
2011,07,02,07,24,11.20
2011,07,02,07,25,11.20
2011,07,02,07,26,11.30
2011,07,02,07,27,11.30
2011,07,02,07,28,11.30
2011,07,02,07,29,11.30
2011,07,02,07,30,11.30
2011,07,02,07,31,11.30
2011,07,02,07,32,11.30
2011,07,02,07,33,11.30
2011,07,02,07,34,11.30
2011,07,02,07,35,11.30
2011,07,02,07,36,11.30
2011,07,02,07,37,11.30
2011,07,02,07,38,11.30
2011,07,02,07,39,11.30
2011,07,02,07,40,11.30
2011,07,02,07,41,11.30
2011,07,02,07,42,11.30
2011,07,02,07,43,11.30
2011,07,02,07,44,11.30
2011,07,02,07,45,11.30
2011,07,02,07,46,11.30
2011,07,02,07,47,11.30
2011,07,02,07,48,11.30
2011,07,02,07,49,11.40
2011,07,02,07,50,11.40
2011,07,02,07,51,11.40
2011,07,02,07,52,11.40
2011,07,02,07,53,11.40
2011,07,02,07,54,11.40
2011,07,02,07,55,11.40
2011,07,02,07,56,11.40
2011,07,02,07,57,11.40
2011,07,02,07,58,11.40
2011,07,02,07,59,11.40
2011,07,02,08,00,11.40
2011,07,02,08,01,11.40
2011,07,02,08,02,11.40
2011,07,02,08,03,11.40
2011,07,02,08,04,11.40
2011,07,02,08,05,11.40
2011,07,02,08,06,11.40
2011,07,02,08,07,11.40
2011,07,02,08,08,11.40
2011,07,02,08,09,11.40
2011,07,02,08,10,11.40
2011,07,02,08,11,11.40
2011,07,02,08,12,11.40
2011,07,02,08,13,11.40
2011,07,02,08,14,11.40
2011,07,02,08,15,11.40
2011,07,02,08,16,11.50
2011,07,02,08,17,11.50
2011,07,02,08,18,11.50
2011,07,02,08,19,11.50
2011,07,02,08,20,11.50
2011,07,02,08,21,11.50
2011,07,02,08,22,11.50
2011,07,02,08,23,11.50
2011,07,02,08,24,11.50
2011,07,02,08,25,11.50
2011,07,02,08,26,11.50
2011,07,02,08,27,11.60
2011,07,02,08,28,11.60
2011,07,02,08,29,11.60
2011,07,02,08,30,11.60
2011,07,02,08,31,11.60
2011,07,02,08,32,11.60
2011,07,02,08,33,11.60
2011,07,02,08,34,11.60
2011,07,02,08,35,11.60
2011,07,02,08,36,11.60
2011,07,02,08,37,11.60
2011,07,02,08,38,11.70
2011,07,02,08,39,11.70
2011,07,02,08,40,11.70
2011,07,02,08,41,11.80
2011,07,02,08,42,11.80
2011,07,02,08,43,11.80
2011,07,02,08,44,11.80
2011,07,02,08,45,11.90
2011,07,02,08,46,11.90
2011,07,02,08,47,11.90
2011,07,02,08,48,11.90
2011,07,02,08,49,11.90
2011,07,02,08,50,11.90
2011,07,02,08,51,11.90
2011,07,02,08,52,11.90
2011,07,02,08,53,11.90
2011,07,02,08,54,12.00
2011,07,02,08,55,12.00
2011,07,02,08,56,12.00
2011,07,02,08,57,12.00
2011,07,02,08,58,12.10
2011,07,02,08,59,12.10
2011,07,02,09,00,12.10
2011,07,02,09,01,12.10
2011,07,02,09,02,12.20
2011,07,02,09,03,12.20
2011,07,02,09,04,12.20
2011,07,02,09,05,12.30
2011,07,02,09,06,12.30
2011,07,02,09,07,12.30
2011,07,02,09,08,12.30
2011,07,02,09,09,12.30
2011,07,02,09,10,12.30
2011,07,02,09,11,12.30
2011,07,02,09,12,12.30
2011,07,02,09,13,12.30
2011,07,02,09,14,12.30
2011,07,02,09,15,12.30
2011,07,02,09,16,12.30
2011,07,02,09,17,12.30
2011,07,02,09,18,12.30
2011,07,02,09,19,12.30
2011,07,02,09,20,12.30
2011,07,02,09,21,12.30
2011,07,02,09,22,12.30
2011,07,02,09,23,12.30
2011,07,02,09,24,12.30
2011,07,02,09,25,12.30
2011,07,02,09,26,12.30
2011,07,02,09,27,12.30
2011,07,02,09,28,12.30
2011,07,02,09,29,12.30
2011,07,02,09,30,12.30
2011,07,02,09,31,12.30
2011,07,02,09,32,12.30
2011,07,02,09,33,12.30
2011,07,02,09,34,12.30
2011,07,02,09,35,12.40
2011,07,02,09,36,12.40
2011,07,02,09,37,12.40
2011,07,02,09,38,12.50
2011,07,02,09,39,12.60
2011,07,02,09,40,12.60
2011,07,02,09,41,12.70
2011,07,02,09,42,12.70
2011,07,02,09,43,12.80
2011,07,02,09,44,12.80
2011,07,02,09,45,12.80
2011,07,02,09,46,12.80
2011,07,02,09,47,12.80
2011,07,02,09,48,12.80
2011,07,02,09,49,12.80
2011,07,02,09,50,12.80
2011,07,02,09,51,12.80
2011,07,02,09,52,12.80
2011,07,02,09,53,12.90
2011,07,02,09,54,12.90
2011,07,02,09,55,12.90
2011,07,02,09,56,12.90
2011,07,02,09,57,12.90
2011,07,02,09,58,12.90
2011,07,02,09,59,12.90
2011,07,02,10,00,12.90
2011,07,02,10,01,12.90
2011,07,02,10,02,13.00
2011,07,02,10,03,13.00
2011,07,02,10,04,13.00
2011,07,02,10,05,13.00
2011,07,02,10,06,13.00
2011,07,02,10,07,13.00
2011,07,02,10,08,13.10
2011,07,02,10,09,13.10
2011,07,02,10,10,13.10
2011,07,02,10,11,13.20
2011,07,02,10,12,13.20
2011,07,02,10,13,13.20
2011,07,02,10,14,13.20
2011,07,02,10,15,13.30
2011,07,02,10,16,13.30
2011,07,02,10,17,13.30
2011,07,02,10,18,13.30
2011,07,02,10,19,13.30
2011,07,02,10,20,13.30
2011,07,02,10,21,13.40
2011,07,02,10,22,13.40
2011,07,02,10,23,13.50
2011,07,02,10,24,13.50
2011,07,02,10,25,13.60
2011,07,02,10,26,13.60
2011,07,02,10,27,13.60
2011,07,02,10,28,13.60
2011,07,02,10,29,13.60
2011,07,02,10,30,13.70
2011,07,02,10,31,13.70
2011,07,02,10,32,13.80
2011,07,02,10,33,13.80
2011,07,02,10,34,13.80
2011,07,02,10,35,13.80
2011,07,02,10,36,13.80
2011,07,02,10,37,13.80
2011,07,02,10,38,13.80
2011,07,02,10,39,13.80
2011,07,02,10,40,13.80
2011,07,02,10,41,13.80
2011,07,02,10,42,13.80
2011,07,02,10,43,13.80
2011,07,02,10,44,13.80
2011,07,02,10,45,13.80
2011,07,02,10,46,13.70
2011,07,02,10,47,13.70
2011,07,02,10,48,13.70
2011,07,02,10,49,13.80
2011,07,02,10,50,13.80
2011,07,02,10,51,13.80
2011,07,02,10,52,13.80
2011,07,02,10,53,13.80
2011,07,02,10,54,13.80
2011,07,02,10,55,13.70
2011,07,02,10,56,13.70
2011,07,02,10,57,13.70
2011,07,02,10,58,13.70
2011,07,02,10,59,13.70
2011,07,02,11,00,13.80
2011,07,02,11,01,13.80
2011,07,02,11,02,13.80
2011,07,02,11,03,13.80
2011,07,02,11,04,13.90
2011,07,02,11,05,13.90
2011,07,02,11,06,13.90
2011,07,02,11,07,13.90
2011,07,02,11,08,13.90
2011,07,02,11,09,13.80
2011,07,02,11,10,13.80
2011,07,02,11,11,13.80
2011,07,02,11,12,13.80
2011,07,02,11,13,13.90
2011,07,02,11,14,13.90
2011,07,02,11,15,13.90
2011,07,02,11,16,13.80
2011,07,02,11,17,13.70
2011,07,02,11,18,13.70
2011,07,02,11,19,13.70
2011,07,02,11,20,13.70
2011,07,02,11,21,13.70
2011,07,02,11,22,13.70
2011,07,02,11,23,13.80
2011,07,02,11,24,13.80
2011,07,02,11,25,13.80
2011,07,02,11,26,13.80
2011,07,02,11,27,13.80
2011,07,02,11,28,13.80
2011,07,02,11,29,13.70
2011,07,02,11,30,13.70
2011,07,02,11,31,13.70
2011,07,02,11,32,13.70
2011,07,02,11,33,13.70
2011,07,02,11,34,13.70
2011,07,02,11,35,13.70
2011,07,02,11,36,13.70
2011,07,02,11,37,13.70
2011,07,02,11,38,13.70
2011,07,02,11,39,13.80
2011,07,02,11,40,13.80
2011,07,02,11,41,13.80
2011,07,02,11,42,13.70
2011,07,02,11,43,13.70
2011,07,02,11,44,13.70
2011,07,02,11,45,13.60
2011,07,02,11,46,13.60
2011,07,02,11,47,13.70
2011,07,02,11,48,13.70
2011,07,02,11,49,13.70
2011,07,02,11,50,13.70
2011,07,02,11,51,13.70
2011,07,02,11,52,13.80
2011,07,02,11,53,13.80
2011,07,02,11,54,13.80
2011,07,02,11,55,13.80
2011,07,02,11,56,13.80
2011,07,02,11,57,13.90
2011,07,02,11,58,13.90
2011,07,02,11,59,14.00
2011,07,02,12,00,14.00
2011,07,02,12,01,14.00
2011,07,02,12,02,14.10
2011,07,02,12,03,14.20
2011,07,02,12,04,14.30
2011,07,02,12,05,14.30
2011,07,02,12,06,14.30
2011,07,02,12,07,14.30
2011,07,02,12,08,14.30
2011,07,02,12,09,14.30
2011,07,02,12,10,14.30
2011,07,02,12,11,14.30
2011,07,02,12,12,14.30
2011,07,02,12,13,14.40
2011,07,02,12,14,14.30
2011,07,02,12,15,14.40
2011,07,02,12,16,14.40
2011,07,02,12,17,14.40
2011,07,02,12,18,14.50
2011,07,02,12,19,14.50
2011,07,02,12,20,14.50
2011,07,02,12,21,14.50
2011,07,02,12,22,14.40
2011,07,02,12,23,14.50
2011,07,02,12,24,14.50
2011,07,02,12,25,14.60
2011,07,02,12,26,14.60
2011,07,02,12,27,14.60
2011,07,02,12,28,14.50
2011,07,02,12,29,14.40
2011,07,02,12,30,14.30
2011,07,02,12,31,14.30
2011,07,02,12,32,14.20
2011,07,02,12,33,14.20
2011,07,02,12,34,14.10
2011,07,02,12,35,14.00
2011,07,02,12,36,14.00
2011,07,02,12,37,13.90
2011,07,02,12,38,13.90
2011,07,02,12,39,13.80
2011,07,02,12,40,13.80
2011,07,02,12,41,13.80
2011,07,02,12,42,13.80
2011,07,02,12,43,13.70
2011,07,02,12,44,13.70
2011,07,02,12,45,13.70
2011,07,02,12,46,13.70
2011,07,02,12,47,13.70
2011,07,02,12,48,13.70
2011,07,02,12,49,13.60
2011,07,02,12,50,13.60
2011,07,02,12,51,13.60
2011,07,02,12,52,13.60
2011,07,02,12,53,13.60
2011,07,02,12,54,13.60
2011,07,02,12,55,13.60
2011,07,02,12,56,13.60
2011,07,02,12,57,13.60
2011,07,02,12,58,13.60
2011,07,02,12,59,13.60
2011,07,02,13,00,13.50
2011,07,02,13,01,13.50
2011,07,02,13,02,13.40
2011,07,02,13,03,13.30
2011,07,02,13,04,13.30
2011,07,02,13,05,13.20
2011,07,02,13,06,13.20
2011,07,02,13,07,13.20
2011,07,02,13,08,13.20
2011,07,02,13,09,13.20
2011,07,02,13,10,13.20
2011,07,02,13,11,13.20
2011,07,02,13,12,13.20
2011,07,02,13,13,13.20
2011,07,02,13,14,13.10
2011,07,02,13,15,13.10
2011,07,02,13,16,13.10
2011,07,02,13,17,13.10
2011,07,02,13,18,13.10
2011,07,02,13,19,13.10
2011,07,02,13,20,13.20
2011,07,02,13,21,13.20
2011,07,02,13,22,13.20
2011,07,02,13,23,13.20
2011,07,02,13,24,13.10
2011,07,02,13,25,13.10
2011,07,02,13,26,13.10
2011,07,02,13,27,13.10
2011,07,02,13,28,13.10
2011,07,02,13,29,13.10
2011,07,02,13,30,13.10
2011,07,02,13,31,13.10
2011,07,02,13,32,13.10
2011,07,02,13,33,13.10
2011,07,02,13,34,13.10
2011,07,02,13,35,13.20
2011,07,02,13,36,13.20
2011,07,02,13,37,13.20
2011,07,02,13,38,13.20
2011,07,02,13,39,13.30
2011,07,02,13,40,13.30
2011,07,02,13,41,13.40
2011,07,02,13,42,13.50
2011,07,02,13,43,13.50
2011,07,02,13,44,13.60
2011,07,02,13,45,13.60
2011,07,02,13,46,13.70
2011,07,02,13,47,13.70
2011,07,02,13,48,13.80
2011,07,02,13,49,13.80
2011,07,02,13,50,13.90
2011,07,02,13,51,13.90
2011,07,02,13,52,13.90
2011,07,02,13,53,13.90
2011,07,02,13,54,13.80
2011,07,02,13,55,13.80
2011,07,02,13,56,13.90
2011,07,02,13,57,13.80
2011,07,02,13,58,13.80
2011,07,02,13,59,13.80
2011,07,02,14,00,13.80
2011,07,02,14,01,13.80
2011,07,02,14,02,13.90
2011,07,02,14,03,13.90
2011,07,02,14,04,13.90
2011,07,02,14,05,13.90
2011,07,02,14,06,13.90
2011,07,02,14,07,13.90
2011,07,02,14,08,13.90
2011,07,02,14,09,13.90
2011,07,02,14,10,13.90
2011,07,02,14,11,13.90
2011,07,02,14,12,13.80
2011,07,02,14,13,13.80
2011,07,02,14,14,13.80
2011,07,02,14,15,13.80
2011,07,02,14,16,13.80
2011,07,02,14,17,13.80
2011,07,02,14,18,13.70
2011,07,02,14,19,13.70
2011,07,02,14,20,13.70
2011,07,02,14,21,13.70
2011,07,02,14,22,13.70
2011,07,02,14,23,13.60
2011,07,02,14,24,13.60
2011,07,02,14,25,13.60
2011,07,02,14,26,13.60
2011,07,02,14,27,13.60
2011,07,02,14,28,13.50
2011,07,02,14,29,13.40
2011,07,02,14,30,13.40
2011,07,02,14,31,13.40
2011,07,02,14,32,13.40
2011,07,02,14,33,13.40
2011,07,02,14,34,13.30
2011,07,02,14,35,13.30
2011,07,02,14,36,13.30
2011,07,02,14,37,13.30
2011,07,02,14,38,13.30
2011,07,02,14,39,13.40
2011,07,02,14,40,13.40
2011,07,02,14,41,13.30
2011,07,02,14,42,13.30
2011,07,02,14,43,13.30
2011,07,02,14,44,13.30
2011,07,02,14,45,13.30
2011,07,02,14,46,13.30
2011,07,02,14,47,13.30
2011,07,02,14,48,13.30
2011,07,02,14,49,13.40
2011,07,02,14,50,13.40
2011,07,02,14,51,13.40
2011,07,02,14,52,13.40
2011,07,02,14,53,13.40
2011,07,02,14,54,13.40
2011,07,02,14,55,13.40
2011,07,02,14,56,13.40
2011,07,02,14,57,13.40
2011,07,02,14,58,13.50
2011,07,02,14,59,13.50
2011,07,02,15,00,13.50
2011,07,02,15,01,13.50
2011,07,02,15,02,13.60
2011,07,02,15,03,13.60
2011,07,02,15,04,13.60
2011,07,02,15,05,13.60
2011,07,02,15,06,13.60
2011,07,02,15,07,13.60
2011,07,02,15,08,13.60
2011,07,02,15,09,13.60
2011,07,02,15,10,13.60
2011,07,02,15,11,13.60
2011,07,02,15,12,13.60
2011,07,02,15,13,13.50
2011,07,02,15,14,13.50
2011,07,02,15,15,13.40
2011,07,02,15,16,13.40
2011,07,02,15,17,13.30
2011,07,02,15,18,13.30
2011,07,02,15,19,13.30
2011,07,02,15,20,13.30
2011,07,02,15,21,13.30
2011,07,02,15,22,13.20
2011,07,02,15,23,13.20
2011,07,02,15,24,13.20
2011,07,02,15,25,13.10
2011,07,02,15,26,13.10
2011,07,02,15,27,13.00
2011,07,02,15,28,13.00
2011,07,02,15,29,12.90
2011,07,02,15,30,12.90
2011,07,02,15,31,12.90
2011,07,02,15,32,12.80
2011,07,02,15,33,12.80
2011,07,02,15,34,12.80
2011,07,02,15,35,12.80
2011,07,02,15,36,12.90
2011,07,02,15,37,12.90
2011,07,02,15,38,12.90
2011,07,02,15,39,12.90
2011,07,02,15,40,12.90
2011,07,02,15,41,12.90
2011,07,02,15,42,12.90
2011,07,02,15,43,12.90
2011,07,02,15,44,12.90
2011,07,02,15,45,12.90
2011,07,02,15,46,13.00
2011,07,02,15,47,13.00
2011,07,02,15,48,13.00
2011,07,02,15,49,12.90
2011,07,02,15,50,12.90
2011,07,02,15,51,12.90
2011,07,02,15,52,12.80
2011,07,02,15,53,12.80
2011,07,02,15,54,12.80
2011,07,02,15,55,12.80
2011,07,02,15,56,12.80
2011,07,02,15,57,12.70
2011,07,02,15,58,12.70
2011,07,02,15,59,12.70
2011,07,02,16,00,12.60
2011,07,02,16,01,12.60
2011,07,02,16,02,12.60
2011,07,02,16,03,12.60
2011,07,02,16,04,12.60
2011,07,02,16,05,12.60
2011,07,02,16,06,12.60
2011,07,02,16,07,12.50
2011,07,02,16,08,12.50
2011,07,02,16,09,12.50
2011,07,02,16,10,12.50
2011,07,02,16,11,12.60
2011,07,02,16,12,12.60
2011,07,02,16,13,12.50
2011,07,02,16,14,12.50
2011,07,02,16,15,12.50
2011,07,02,16,16,12.50
2011,07,02,16,17,12.40
2011,07,02,16,18,12.40
2011,07,02,16,19,12.40
2011,07,02,16,20,12.40
2011,07,02,16,21,12.40
2011,07,02,16,22,12.40
2011,07,02,16,23,12.40
2011,07,02,16,24,12.40
2011,07,02,16,25,12.40
2011,07,02,16,26,12.40
2011,07,02,16,27,12.40
2011,07,02,16,28,12.40
2011,07,02,16,29,12.40
2011,07,02,16,30,12.40
2011,07,02,16,31,12.40
2011,07,02,16,32,12.40
2011,07,02,16,33,12.40
2011,07,02,16,34,12.40
2011,07,02,16,35,12.40
2011,07,02,16,36,12.40
2011,07,02,16,37,12.40
2011,07,02,16,38,12.40
2011,07,02,16,39,12.40
2011,07,02,16,40,12.40
2011,07,02,16,41,12.40
2011,07,02,16,42,12.40
2011,07,02,16,43,12.40
2011,07,02,16,44,12.40
2011,07,02,16,45,12.40
2011,07,02,16,46,12.40
2011,07,02,16,47,12.40
2011,07,02,16,48,12.40
2011,07,02,16,49,12.40
2011,07,02,16,50,12.40
2011,07,02,16,51,12.40
2011,07,02,16,52,12.40
2011,07,02,16,53,12.40
2011,07,02,16,54,12.50
2011,07,02,16,55,12.50
2011,07,02,16,56,12.50
2011,07,02,16,57,12.50
2011,07,02,16,58,12.50
2011,07,02,16,59,12.50
2011,07,02,17,00,12.50
2011,07,02,17,01,12.50
2011,07,02,17,02,12.50
2011,07,02,17,03,12.50
2011,07,02,17,04,12.60
2011,07,02,17,05,12.60
2011,07,02,17,06,12.60
2011,07,02,17,07,12.60
2011,07,02,17,08,12.50
2011,07,02,17,09,12.60
2011,07,02,17,10,12.60
2011,07,02,17,11,12.60
2011,07,02,17,12,12.60
2011,07,02,17,13,12.60
2011,07,02,17,14,12.60
2011,07,02,17,15,12.60
2011,07,02,17,16,12.60
2011,07,02,17,17,12.60
2011,07,02,17,18,12.60
2011,07,02,17,19,12.60
2011,07,02,17,20,12.60
2011,07,02,17,21,12.70
2011,07,02,17,22,12.70